Regional Weather Roundup
Issued by NWS

Home | Current Version | Previous Version | Graphics & Text | Print | Product List | Glossary On
Versions: 1 2 3 4 5 6 7 8 9 10 11 12 13 14 15 16 17 18 19 20 21 22 23 24 25 26 27 28 29 30 31 32 33 34 35 36 37 38 39 40 41 42 43 44 45 46 47 48 49 50
000
ASUS43 KIND 242359
RWRIN

WEATHER ROUNDUP FOR INDIANA
NATIONAL WEATHER SERVICE INDIANAPOLIS IN
700 PM EST SAT JAN 24 2015

NOTE: "FAIR" INDICATES FEW OR NO CLOUDS BELOW 12,000 FEET WITH NO
SIGNIFICANT WEATHER AND/OR OBSTRUCTIONS TO VISIBILITY.

* - STATION DOES NOT REPORT WEATHER SUCH AS PRECIPITATION OR FOG.

+ - STATION NOT QUALITY CONTROLLED BY THE NATIONAL WEATHER SERVICE.
    USE DATA WITH CAUTION...ESPECIALLY DEWPOINT AND RELATIVE
    HUMIDITY OBSERVATIONS.

INZ001>003-010>013-019-020-250100-
NORTHWEST INDIANA

CITY           SKY/WX    TMP DP  RH WIND       PRES   REMARKS
GARY /AIRPORT/ MOCLDY    39  30  70 W14       29.69R
VALPARAISO     NOT AVBL

$$

LMZ046-743>745-250100-
SOUTHERN LAKE MICHIGAN

STATION/POSITION TIME  TEMP WIND        PRES
                       AIR  DIR/SP/G
                 (UTC) (F)  (DEG/KT/KT) (MB)
MICHIGAN CITY    2300   36  220/ 10/ 12   N/A

$$

INZ004-005-014>016-021>024-250100-
NORTH CENTRAL INDIANA

CITY           SKY/WX    TMP DP  RH WIND       PRES   REMARKS
GOSHEN         CLOUDY    37  31  78 SW7       29.67R
6HR MIN TEMP:  36; 6HR MAX TEMP:  40;

SOUTH BEND     CLOUDY    37  30  75 SW5       29.67R
6HR MIN TEMP:  37; 6HR MAX TEMP:  42;


$$

INZ006>009-017-018-025>027-250100-
NORTHEAST INDIANA

CITY           SKY/WX    TMP DP  RH WIND       PRES   REMARKS
ANGOLA *+      CLOUDY    36  25  64 SW5       29.65R
FORT WAYNE     CLOUDY    36  31  82 SW7       29.69S
6HR MIN TEMP:  32; 6HR MAX TEMP:  37;


$$

INZ028-029-035-036-043>045-051>053-250100-
WEST CENTRAL INDIANA

CITY           SKY/WX    TMP DP  RH WIND       PRES   REMARKS
GREENCASTLE +  CLEAR     36  30  80 SW3       29.75R
LAFAYETTE      PTCLDY    37  33  85 SW7       29.72R
6HR MIN TEMP:  37; 6HR MAX TEMP:  43;

TERRE HAUTE    CLEAR     39  32  76 SW6       29.77R
6HR MIN TEMP:  38; 6HR MAX TEMP:  45;


$$

INZ030>032-037>040-046>048-054>057-064-065-250100-
CENTRAL INDIANA

CITY           SKY/WX    TMP DP  RH WIND       PRES   REMARKS
INDIANAPOLIS   PTCLDY    32  28  85 SW7       29.75R WCI  26
6HR MIN TEMP:  32; 6HR MAX TEMP:  39;

-EAGLE CREEK   CLOUDY    36  30  79 S5        29.74R
6HR MIN TEMP:  33; 6HR MAX TEMP:  41;

KOKOMO *+      CLOUDY    37  34  87 SW7       29.71R
MT COMFORT *+  MOCLDY    36  25  64 S5        29.75R
SHELBYVILLE    MOCLDY    36  28  73 S7        29.75R
6HR MIN TEMP:  34; 6HR MAX TEMP:  41;


$$

INZ033-034-041-042-049-050-058-059-250100-
EAST CENTRAL INDIANA

CITY           SKY/WX    TMP DP  RH WIND       PRES   REMARKS
MUNCIE         CLOUDY    37  30  75 SW6       29.72R
6HR MIN TEMP:  32; 6HR MAX TEMP:  37;


$$

INZ060-061-067>069-081>083-085>088-250100-
SOUTHWEST INDIANA

CITY           SKY/WX    TMP DP  RH WIND       PRES   REMARKS
EVANSVILLE     CLEAR     43  30  60 S3        29.82R
6HR MIN TEMP:  41; 6HR MAX TEMP:  49;

HUNTINGBURG *+ CLEAR     39  30  70 S6        29.82R
6HR MIN TEMP:  39; 6HR MAX TEMP:  46;


$$

INZ062-063-066-070>080-084-089>092-250100-
SOUTH CENTRAL AND SOUTHEAST INDIANA

CITY           SKY/WX    TMP DP  RH WIND       PRES   REMARKS
BLOOMINGTON    CLEAR     37  31  78 SW7       29.77R
6HR MIN TEMP:  35; 6HR MAX TEMP:  42;


$$



USA.gov is the U.S. government's official web portal to all federal, state and local government web resources and services.